Location: Prairie Dale
(45.6972°N, 104.5033°W)
Time: 02:43:48
(UTC+00:00)

STARS - Pass Details

Date: 30 June 2022
Orbit: 620 x 637 km, 98.2° (Epoch: 13 August)

Event Time Altitude Azimuth Distance (km) Brightness Sun altitude
Rises 06:01:56 0° 10° (N) 2,936 ? -19.8°
Reaches altitude 10° 06:04:10 10° 7° (N) 2,021 ? -19.9°
Maximum altitude 06:08:30 62° 288° (WNW) 711 ? -20.1°
Enters shadow 06:10:13 34° 221° (SW) 1,027 ? -20.1°
